TimeEST,TemperatureF,Dew PointF,Humidity,Sea Level PressureIn,VisibilityMPH,Wind Direction,Wind SpeedMPH,Gust SpeedMPH,PrecipitationIn,Events,Conditions,WindDirDegrees,DateUTC
12:51 AM,5.0,1.0,84,30.10,10.0,Calm,Calm,-,N/A,,Clear,0,2014-02-16 05:51:00
1:51 AM,5.0,-0.0,80,30.08,10.0,South,4.6,-,N/A,,Clear,180,2014-02-16 06:51:00
2:51 AM,6.1,1.0,80,30.07,10.0,South,5.8,-,N/A,,Clear,180,2014-02-16 07:51:00
3:51 AM,6.1,1.0,80,30.06,10.0,South,6.9,-,N/A,,Clear,190,2014-02-16 08:51:00
4:51 AM,7.0,1.0,77,30.05,10.0,South,5.8,-,N/A,,Clear,170,2014-02-16 09:51:00
5:51 AM,8.1,1.9,76,30.04,10.0,South,8.1,-,N/A,,Clear,180,2014-02-16 10:51:00
6:51 AM,9.0,3.0,77,30.04,10.0,SSE,8.1,-,N/A,,Scattered Clouds,160,2014-02-16 11:51:00
7:51 AM,10.0,3.9,76,30.05,10.0,South,9.2,-,N/A,,Overcast,170,2014-02-16 12:51:00
8:51 AM,12.0,6.1,77,30.06,9.0,South,8.1,-,N/A,,Overcast,180,2014-02-16 13:51:00
9:51 AM,15.1,8.1,74,30.05,3.0,South,5.8,-,0.00,Snow,Light Snow,190,2014-02-16 14:51:00
9:58 AM,15.8,8.6,73,30.01,1.8,South,5.8,-,0.00,Snow,Light Snow,180,2014-02-16 14:58:00
10:19 AM,15.8,10.4,79,30.01,1.8,South,5.8,-,0.00,Snow,Light Snow,170,2014-02-16 15:19:00
10:47 AM,17.6,12.2,79,30.01,3.0,South,3.5,-,0.00,Snow,Light Snow,180,2014-02-16 15:47:00
10:51 AM,18.0,12.0,78,30.06,3.0,Calm,Calm,-,0.01,Snow,Light Snow,0,2014-02-16 15:51:00
10:54 AM,17.6,12.2,79,30.01,2.5,Calm,Calm,-,0.00,Snow,Light Snow,0,2014-02-16 15:54:00
11:20 AM,19.4,12.2,74,30.01,1.5,NNW,4.6,-,0.00,Snow,Light Snow,340,2014-02-16 16:20:00
11:46 AM,19.4,14.0,80,30.01,1.8,NNE,5.8,-,0.00,Snow,Light Snow,30,2014-02-16 16:46:00
11:51 AM,19.9,12.9,74,30.06,1.8,NNE,5.8,-,0.00,Snow,Light Snow,20,2014-02-16 16:51:00
12:00 PM,19.4,12.2,74,30.01,2.0,North,5.8,-,0.01,Snow,Light Snow,360,2014-02-16 17:00:00
12:28 PM,19.4,14.0,80,30.01,2.0,North,6.9,-,0.01,Snow,Light Snow,360,2014-02-16 17:28:00
12:51 PM,19.0,12.9,77,30.05,2.0,NNE,6.9,-,0.01,Snow,Light Snow,20,2014-02-16 17:51:00
1:04 PM,19.4,12.2,74,30.00,1.2,NNE,5.8,-,0.00,Snow,Light Snow,30,2014-02-16 18:04:00
1:20 PM,19.4,12.2,74,30.00,0.8,NNE,6.9,-,0.00,Snow,Light Snow,20,2014-02-16 18:20:00
1:27 PM,19.4,12.2,74,30.00,1.0,NNE,4.6,-,0.00,Snow,Light Snow,20,2014-02-16 18:27:00
1:49 PM,19.4,12.2,74,30.00,1.5,NNE,5.8,-,0.01,Snow,Light Snow,20,2014-02-16 18:49:00
1:51 PM,19.0,12.9,77,30.05,1.5,NNE,4.6,-,0.01,Snow,Light Snow,20,2014-02-16 18:51:00
2:11 PM,19.4,12.2,74,30.01,1.8,NNE,6.9,-,0.00,Snow,Light Snow,20,2014-02-16 19:11:00
2:37 PM,17.6,12.2,79,30.01,1.8,NE,6.9,-,0.00,Snow,Light Snow,40,2014-02-16 19:37:00
2:46 PM,19.4,12.2,74,30.01,2.0,NNE,6.9,-,0.00,Snow,Light Snow,30,2014-02-16 19:46:00
2:51 PM,19.0,12.0,74,30.06,2.0,NNE,6.9,-,0.00,Snow,Light Snow,30,2014-02-16 19:51:00
2:58 PM,19.4,12.2,74,30.02,1.8,NE,5.8,-,0.00,Snow,Light Snow,40,2014-02-16 19:58:00
3:18 PM,19.4,12.2,74,30.02,2.0,ENE,3.5,-,0.00,Snow,Light Snow,70,2014-02-16 20:18:00
3:31 PM,19.4,12.2,74,30.03,3.0,ENE,3.5,-,0.00,,Haze,60,2014-02-16 20:31:00
3:51 PM,19.9,12.9,74,30.08,4.0,NE,3.5,-,0.00,,Haze,40,2014-02-16 20:51:00
4:51 PM,17.1,12.0,81,30.14,8.0,NNW,3.5,-,N/A,,Mostly Cloudy,340,2014-02-16 21:51:00
5:39 PM,15.8,10.4,79,30.13,6.0,NNW,3.5,-,N/A,,Haze,340,2014-02-16 22:39:00
5:51 PM,15.1,10.9,84,30.19,4.0,North,3.5,-,N/A,,Overcast,350,2014-02-16 22:51:00
6:51 PM,15.1,10.9,84,30.24,7.0,Calm,Calm,-,0.00,,Overcast,0,2014-02-16 23:51:00
7:32 PM,15.8,10.4,79,30.21,8.0,Calm,Calm,-,N/A,,Overcast,0,2014-02-17 00:32:00
7:47 PM,15.8,10.4,79,30.22,7.0,West,3.5,-,N/A,,Overcast,280,2014-02-17 00:47:00
7:51 PM,15.1,10.9,84,30.27,6.0,West,3.5,-,N/A,,Overcast,260,2014-02-17 00:51:00
8:41 PM,15.8,10.4,79,30.24,6.0,West,6.9,-,0.00,,Overcast,270,2014-02-17 01:41:00
8:51 PM,14.0,10.0,84,30.30,8.0,West,6.9,-,0.00,,Overcast,280,2014-02-17 01:51:00
9:26 PM,12.2,8.6,85,30.27,10.0,WNW,3.5,-,N/A,,Scattered Clouds,300,2014-02-17 02:26:00
9:51 PM,12.0,6.1,77,30.33,10.0,NW,3.5,-,N/A,,Clear,310,2014-02-17 02:51:00
10:51 PM,10.0,3.0,73,30.36,10.0,NNW,5.8,-,N/A,,Clear,330,2014-02-17 03:51:00
11:51 PM,8.1,1.0,73,30.39,10.0,Calm,Calm,-,N/A,,Clear,0,2014-02-17 04:51:00